sat.trackr.live / text

‹ back to catalog

STARLINK-31613

NORAD 59431 · 2024-065L

PAYLOAD ACTIVE UNKNOWN

§ Identity

Operator
Country
US
Launch date
2024-04-07
Launch site
AFWTR
Launch vehicle
Mass (kg)
RCS (m²)

Purposes: comms

External: N2YO · Heavens-Above · Gunter

§ Orbital elements

Epoch: 2026-05-25T03:05:11.344992Z

Period
94.11 min
Inclination
53.1614°
Eccentricity
0.0001218
Mean motion
15.30197143 rev/d
Perigee alt
474.4 km
Apogee alt
476.1 km
Semi-major
6,853.4 km
B*
4.2519e-5
RAAN
286.5468°
Arg perigee
81.8365°
Mean anomaly
278.2774°
Rev number
12,063

§ Raw data

STARLINK-316131 59431U 24065L   26145.12860353  .00000900  00000+0  42519-4 0  99982 59431  53.1614 286.5468 0001218  81.8365 278.2774 15.30197143120639

JSON: /api/v1/satellites/59431 · /tle

For live sub-satellite position, see the globe view (requires WebGL).

§ Visibility from observer

Set your observer location to see the next 7 days of passes ≥ 10°. The values pass through the URL so the page stays shareable.

No JS? Fill the form by hand. The geolocation button needs JavaScript.